FW0788 Weather Reports


Display with metric or nautical units.
time (UTC)temp
F
wind
direction
speed
MPH
gust
MPH
rain 1hr
in
rain 24hr
in
rain mn
in
humidity
%
barometer
mb
20260507054556 49 173 0.0 1.0 0.00 0.02 0.00 65 1012.9
20260507053055 49 173 0.0 2.0 0.00 0.02 0.00 64 1013.1
20260507051555 49 188 0.0 1.0 0.00 0.02 0.00 64 1013.1
20260507050057 49 119 0.0 3.0 0.00 0.02 0.00 61 1013.2
20260507044554 50 203 0.0 5.0 0.00 0.03 0.00 59 1013.3
20260507043053 50 74 0.0 8.0 0.00 0.03 0.00 57 1013.3
20260507041551 51 128 0.0 4.0 0.00 0.03 0.00 56 1013.5
20260507040051 51 117 0.0 1.0 0.00 0.03 0.00 57 1013.2
20260507034551 51 146 0.0 4.0 0.00 0.03 0.00 57 1013.4
20260507033050 51 180 0.0 3.0 0.00 0.03 0.00 58 1013.3
20260507031550 51 101 0.0 3.0 0.00 0.03 0.00 54 1013.2
20260507030049 52 126 0.0 7.0 0.00 0.03 0.00 56 1013.3
20260507024601 52 130 0.0 6.0 0.00 0.04 0.00 52 1013.5
20260507023047 52 130 0.0 0.0 0.00 0.04 0.00 54 1013.5
20260507021546 52 158 0.0 0.0 0.00 0.04 0.00 54 1013.6
20260507020104 52 86 0.0 0.0 0.00 0.04 0.00 53 1013.7
20260507014554 53 75 0.0 0.0 0.00 0.08 0.00 48 1013.6
20260507013048 54 94 0.0 0.0 0.00 0.08 0.00 52 1013.7
20260507011540 53 92 0.0 0.0 0.00 0.08 0.00 52 1013.7
20260507010040 53 144 0.0 0.0 0.00 0.08 0.00 58 1013.8
20260507004542 53 126 0.0 0.0 0.00 0.08 0.00 58 1013.7
20260507003035 52 76 0.0 0.0 0.00 0.08 0.00 55 1013.5
20260507001534 53 105 0.0 0.0 0.00 0.08 0.00 55 1013.4
20260507000028 53 80 0.0 0.0 0.00 0.08 0.00 56 1013.3
20260506234534 52 80 0.0 0.0 0.00 0.08 0.00 61 1013.3
20260506233020 51 42 0.0 0.0 0.00 0.08 0.00 61 1013.2
20260506231530 50 140 0.0 0.0 0.00 0.08 0.00 66 1013.2
20260506230011 48 114 0.0 0.0 0.00 0.08 0.00 72 1013.2
20260506224507 46 120 0.0 0.0 0.00 0.10 0.00 75 1013.1
20260506223004 42 119 0.0 0.0 0.00 0.10 0.00 82 1012.9
20260506221600 40 169 0.0 0.0 0.00 0.10 0.00 88 1012.7
20260506220057 39 169 0.0 0.0 0.00 0.10 0.00 88 1012.3
20260506214554 39 163 0.0 0.0 0.00 0.10 0.00 88 1011.8
20260506213108 39 163 0.0 0.0 0.00 0.10 0.00 86 1011.8
20260506211604 40 163 0.0 0.0 0.00 0.10 0.00 85 1011.5
20260506210046 40 163 0.0 0.0 0.00 0.10 0.00 84 1011.6
20260506204548 41 163 0.0 0.0 0.00 0.10 0.00 82 1011.0
20260506203045 42 163 0.0 0.0 0.00 0.10 0.00 81 1010.9
20260506201550 43 163 0.0 1.0 0.00 0.10 0.00 79 1011.0
20260506200033 43 171 0.0 4.0 0.00 0.10 0.00 77 1010.8
20260506194531 43 146 0.0 0.0 0.00 0.10 0.00 77 1010.2
20260506193027 43 74 0.0 0.0 0.00 0.10 0.00 76 1009.9
20260506191525 43 74 0.0 0.0 0.00 0.10 0.00 76 1009.7
20260506190022 44 74 0.0 0.0 0.00 0.10 0.00 77 1009.6
20260506184520 44 74 0.0 1.0 0.00 0.12 0.00 74 1009.3
20260506183028 45 136 0.0 4.0 0.00 0.12 0.00 74 1009.3
20260506181517 45 121 0.0 7.0 0.00 0.12 0.00 74 1009.0
20260506180016 44 105 0.0 4.0 0.00 0.12 0.00 75 1009.0
20260506174512 44 132 0.0 8.0 0.00 0.13 0.00 77 1008.9
20260506173010 44 137 0.0 3.0 0.00 0.13 0.00 77 1008.4
20260506171510 45 156 0.0 4.0 0.00 0.13 0.00 77 1008.4
20260506170007 45 148 0.0 4.0 0.00 0.13 0.00 76 1008.6
20260506164506 45 78 0.0 7.0 0.00 0.17 0.00 76 1008.5
20260506163002 46 155 0.0 2.0 0.00 0.17 0.00 76 1008.2
20260506161502 46 101 0.0 2.0 0.00 0.17 0.00 75 1007.9
20260506160113 46 90 0.0 4.0 0.00 0.17 0.00 74 1008.0
20260506160002 46 91 0.0 4.0 0.00 0.17 0.00 75 1008.0
20260506154605 46 196 1.0 9.0 0.00 0.17 0.00 75 1008.1
20260506153058 46 154 0.0 9.0 0.00 0.17 0.00 74 1007.5
20260506151558 45 74 0.0 7.0 0.00 0.17 0.00 76 1007.5
20260506150056 46 110 0.0 6.0 0.00 0.17 0.00 76 1007.5
20260506144605 46 135 0.0 8.0 0.00 0.17 0.00 74 1007.6
20260506143055 46 141 1.0 11.0 0.00 0.17 0.00 76 1007.7
20260506141549 46 150 0.0 9.0 0.00 0.17 0.00 77 1007.6
20260506140047 47 90 3.0 11.0 0.00 0.17 0.00 76 1007.4
20260506134544 47 105 1.0 11.0 0.00 0.17 0.00 78 1007.4
20260506133042 47 157 1.0 7.0 0.00 0.17 0.00 77 1007.4
20260506131537 47 146 0.0 8.0 0.00 0.17 0.00 77 1007.2
20260506130034 47 149 2.0 12.0 0.00 0.17 0.00 78 1007.0
20260506124534 47 117 0.0 6.0 0.00 0.17 0.17 79 1007.2
20260506123034 48 130 1.0 8.0 0.00 0.17 0.17 79 1007.3
20260506121531 47 136 0.0 7.0 0.00 0.17 0.17 82 1007.4
20260506120039 48 140 0.0 9.0 0.00 0.17 0.17 83 1007.4
20260506114538 47 113 0.0 5.0 0.00 0.17 0.17 86 1007.3
20260506113053 48 132 0.0 2.0 0.00 0.17 0.17 87 1007.1
20260506111552 48 155 0.0 2.0 0.00 0.17 0.17 88 1007.2
20260506110050 49 134 0.0 0.0 0.01 0.17 0.17 89 1007.1
20260506104550 49 202 0.0 0.0 0.01 0.17 0.17 88 1007.0
20260506103053 49 155 0.0 0.0 0.02 0.17 0.17 89 1006.6
20260506101546 50 155 0.0 1.0 0.02 0.17 0.17 88 1006.6
20260506100046 50 132 0.0 4.0 0.02 0.16 0.16 86 1007.0
20260506094545 50 171 1.0 8.0 0.02 0.16 0.16 86 1007.0
20260506093043 51 113 0.0 12.0 0.00 0.14 0.14 83 1006.7
20260506091538 52 96 1.0 8.0 0.00 0.14 0.14 81 1006.4
20260506090044 54 186 0.0 9.0 0.00 0.14 0.14 73 1006.5
20260506084534 55 134 0.0 13.0 0.00 0.14 0.14 69 1006.1
20260506083030 57 173 1.0 10.0 0.00 0.14 0.14 71 1005.7
20260506081534 58 97 1.0 9.0 0.00 0.14 0.14 79 1005.4
20260506073026 58 182 1.0 13.0 0.00 0.14 0.14 79 1005.1
20260506071524 59 164 1.0 15.0 0.00 0.14 0.14 77 1005.4
20260506061535 60 272 0.0 12.0 0.00 0.14 0.14 76 1006.4